When you browse on this site, cookies collect data to enhance your experience and personalize the content and advertising you see.
Visit our Privacy Policy to learn more. By continuing to use the site, you agree to this use of cookies and data.
  • In Sweden
  • List of Countries
  • For 7 days
  • Water Temperature
  • Weather Map
  • Weather Widgets
  • user-avatar
    Login

    Hourly Weather Prudnik

    Today, 2 April, Thursday

    Time Temperature Precipitation Wind Pressure Humidity
    00:00 -1°C° 0 mm 2 mps 738 mmHg 62%
    01:00 -1°C° 0 mm 2 mps 738 mmHg 63%
    02:00 -1°C° 0 mm 2 mps 737 mmHg 63%
    03:00 -1°C° 0 mm 2 mps 737 mmHg 62%
    04:00 -1°C° 0 mm 2 mps 737 mmHg 62%
    05:00 -1°C° 0 mm 2 mps 737 mmHg 59%
    06:00 +1°C° 0 mm 2 mps 737 mmHg 56%
    07:00 +2°C° 0 mm 2 mps 737 mmHg 52%
    08:00 +4°C° 0 mm 2 mps 737 mmHg 48%
    09:00 +6°C° 0 mm 2 mps 736 mmHg 44%
    10:00 +8°C° 0 mm 2 mps 736 mmHg 39%
    11:00 +9°C° 0 mm 3 mps 736 mmHg 39%
    12:00 +10°C° 0 mm 3 mps 735 mmHg 39%
    13:00 +10°C° 0 mm 3 mps 735 mmHg 39%
    14:00 +10°C° 0 mm 3 mps 735 mmHg 41%
    15:00 +10°C° 0 mm 4 mps 734 mmHg 42%
    16:00 +10°C° 0 mm 4 mps 733 mmHg 43%
    17:00 +7°C° 0 mm 4 mps 733 mmHg 50%
    18:00 +5°C° 0 mm 3 mps 733 mmHg 57%
    19:00 +4°C° 0 mm 3 mps 733 mmHg 63%
    20:00 +3°C° 0 mm 3 mps 733 mmHg 63%
    21:00 +3°C° 0 mm 4 mps 733 mmHg 63%
    22:00 +1°C° 0 mm 4 mps 733 mmHg 64%
    23:00 +1°C° 0 mm 4 mps 733 mmHg 63%

    Tomorrow, 3 April, Friday

    Time Temperature Precipitation Wind Pressure Humidity
    00:00 +1°C° 0 mm 4 mps 733 mmHg 62%
    01:00 +1°C° 0 mm 4 mps 733 mmHg 62%
    02:00 +1°C° 0 mm 4 mps 732 mmHg 65%
    03:00 0°C° 0 mm 4 mps 732 mmHg 67%
    04:00 +1°C° 0 mm 3 mps 732 mmHg 70%
    05:00 +1°C° 0 mm 4 mps 733 mmHg 70%
    06:00 +3°C° 0 mm 4 mps 733 mmHg 69%
    07:00 +3°C° 0 mm 4 mps 733 mmHg 69%
    08:00 +5°C° 0 mm 4 mps 734 mmHg 67%
    09:00 +6°C° 0 mm 4 mps 734 mmHg 65%
    10:00 +7°C° 0 mm 5 mps 734 mmHg 63%
    11:00 +7°C° 0.1 mm 5 mps 735 mmHg 64%
    12:00 +7°C° 0.1 mm 4 mps 735 mmHg 64%
    13:00 +8°C° 0.1 mm 4 mps 736 mmHg 64%
    14:00 +7°C° 0.1 mm 4 mps 736 mmHg 64%
    15:00 +7°C° 0.1 mm 4 mps 736 mmHg 63%
    16:00 +7°C° 0.1 mm 4 mps 736 mmHg 63%
    17:00 +7°C° 0.1 mm 3 mps 736 mmHg 67%
    18:00 +4°C° 0.1 mm 3 mps 737 mmHg 71%
    19:00 +4°C° 0.1 mm 2 mps 737 mmHg 75%
    20:00 +3°C° 0 mm 2 mps 738 mmHg 76%
    21:00 +3°C° 0 mm 2 mps 739 mmHg 77%
    22:00 +2°C° 0 mm 2 mps 739 mmHg 78%
    23:00 +2°C° 0 mm 2 mps 740 mmHg 77%

    Day after tomorrow, 4 April, Saturday

    Time Temperature Precipitation Wind Pressure Humidity
    00:00 +2°C° 0 mm 2 mps 740 mmHg 76%
    01:00 +2°C° 0 mm 1 mps 741 mmHg 76%
    02:00 +2°C° 0 mm 1 mps 741 mmHg 76%
    03:00 +2°C° 0 mm 1 mps 741 mmHg 76%
    04:00 +2°C° 0 mm 1 mps 741 mmHg 76%
    05:00 +3°C° 0 mm 1 mps 742 mmHg 73%
    06:00 +4°C° 0 mm 1 mps 743 mmHg 70%
    07:00 +5°C° 0 mm 1 mps 743 mmHg 67%
    08:00 +6°C° 0 mm 1 mps 744 mmHg 63%
    09:00 +6°C° 0 mm 2 mps 744 mmHg 59%
    10:00 +8°C° 0 mm 2 mps 744 mmHg 55%
    11:00 +8°C° 0 mm 2 mps 745 mmHg 54%
    12:00 +8°C° 0 mm 2 mps 745 mmHg 53%
    13:00 +9°C° 0 mm 2 mps 745 mmHg 51%
    14:00 +9°C° 0 mm 2 mps 745 mmHg 52%
    15:00 +9°C° 0 mm 2 mps 745 mmHg 52%
    16:00 +9°C° 0 mm 2 mps 745 mmHg 53%
    17:00 +7°C° 0 mm 2 mps 746 mmHg 59%
    18:00 +6°C° 0 mm 2 mps 746 mmHg 64%
    19:00 +4°C° 0 mm 2 mps 746 mmHg 70%
    20:00 +5°C° 0 mm 1 mps 747 mmHg 71%
    21:00 +4°C° 0 mm 1 mps 748 mmHg 72%
    22:00 +4°C° 0 mm 1 mps 748 mmHg 73%
    23:00 +3°C° 0 mm 1 mps 748 mmHg 74%

    5 April, Sunday

    Time Temperature Precipitation Wind Pressure Humidity
    00:00 +3°C° 0 mm 1 mps 749 mmHg 74%
    01:00 +3°C° 0 mm 1 mps 749 mmHg 74%
    02:00 +2°C° 0 mm 1 mps 749 mmHg 74%
    03:00 +2°C° 0 mm 1 mps 749 mmHg 74%
    04:00 +2°C° 0 mm 1 mps 749 mmHg 75%
    05:00 +2°C° 0 mm 2 mps 749 mmHg 72%
    06:00 +3°C° 0 mm 2 mps 749 mmHg 68%
    07:00 +4°C° 0 mm 2 mps 750 mmHg 65%
    08:00 +5°C° 0 mm 3 mps 750 mmHg 60%
    09:00 +8°C° 0 mm 3 mps 750 mmHg 55%
    10:00 +8°C° 0 mm 4 mps 750 mmHg 50%
    11:00 +10°C° 0 mm 4 mps 749 mmHg 47%
    12:00 +11°C° 0 mm 4 mps 749 mmHg 44%
    13:00 +12°C° 0 mm 4 mps 749 mmHg 42%
    14:00 +13°C° 0 mm 4 mps 749 mmHg 42%
    15:00 +13°C° 0 mm 4 mps 748 mmHg 43%
    16:00 +13°C° 0 mm 4 mps 748 mmHg 44%
    17:00 +11°C° 0 mm 4 mps 748 mmHg 50%
    18:00 +9°C° 0 mm 3 mps 748 mmHg 56%
    19:00 +7°C° 0 mm 3 mps 748 mmHg 62%
    20:00 +5°C° 0 mm 3 mps 748 mmHg 63%
    21:00 +5°C° 0 mm 3 mps 748 mmHg 64%
    22:00 +4°C° 0 mm 3 mps 748 mmHg 66%
    23:00 +4°C° 0 mm 3 mps 748 mmHg 66%

    6 April, Monday

    Time Temperature Precipitation Wind Pressure Humidity
    00:00 +4°C° 0 mm 3 mps 748 mmHg 66%
    01:00 +4°C° 0 mm 3 mps 748 mmHg 66%
    02:00 +4°C° 0 mm 4 mps 748 mmHg 67%
    03:00 +4°C° 0 mm 4 mps 747 mmHg 68%
    04:00 +4°C° 0 mm 4 mps 747 mmHg 70%
    05:00 +5°C° 0 mm 4 mps 747 mmHg 67%
    06:00 +6°C° 0 mm 4 mps 747 mmHg 65%
    07:00 +6°C° 0 mm 5 mps 747 mmHg 63%
    08:00 +8°C° 0 mm 5 mps 747 mmHg 59%
    09:00 +10°C° 0 mm 6 mps 748 mmHg 55%
    10:00 +12°C° 0 mm 7 mps 748 mmHg 51%
    11:00 +12°C° 0 mm 7 mps 748 mmHg 50%
    12:00 +13°C° 0 mm 8 mps 748 mmHg 48%
    13:00 +13°C° 0 mm 8 mps 748 mmHg 47%
    14:00 +13°C° 0 mm 8 mps 748 mmHg 47%
    15:00 +13°C° 0 mm 8 mps 747 mmHg 47%
    16:00 +12°C° 0 mm 7 mps 747 mmHg 47%
    17:00 +11°C° 0 mm 7 mps 747 mmHg 50%
    18:00 +9°C° 0 mm 6 mps 748 mmHg 53%
    19:00 +8°C° 0 mm 5 mps 748 mmHg 56%
    20:00 +7°C° 0 mm 5 mps 748 mmHg 55%
    21:00 +7°C° 0 mm 6 mps 748 mmHg 54%
    22:00 +7°C° 0 mm 6 mps 749 mmHg 53%
    23:00 +5°C° 0 mm 6 mps 749 mmHg 54%

    7 April, Tuesday

    Time Temperature Precipitation Wind Pressure Humidity
    00:00 +6°C° 0 mm 5 mps 749 mmHg 55%
    01:00 +5°C° 0 mm 5 mps 749 mmHg 56%
    02:00 +5°C° 0 mm 5 mps 749 mmHg 55%
    03:00 +5°C° 0 mm 5 mps 750 mmHg 55%
    04:00 +5°C° 0 mm 5 mps 750 mmHg 54%
    05:00 +5°C° 0 mm 5 mps 750 mmHg 53%
    06:00 +6°C° 0 mm 5 mps 750 mmHg 51%
    07:00 +6°C° 0 mm 5 mps 751 mmHg 50%
    08:00 +8°C° 0 mm 5 mps 751 mmHg 45%
    09:00 +9°C° 0 mm 6 mps 751 mmHg 40%
    10:00 +11°C° 0 mm 6 mps 751 mmHg 35%
    11:00 +13°C° 0 mm 5 mps 751 mmHg 35%
    12:00 +14°C° 0 mm 5 mps 751 mmHg 34%
    13:00 +15°C° 0 mm 4 mps 751 mmHg 33%
    14:00 +15°C° 0 mm 4 mps 751 mmHg 35%
    15:00 +15°C° 0 mm 4 mps 751 mmHg 36%
    16:00 +14°C° 0 mm 3 mps 750 mmHg 38%
    17:00 +12°C° 0 mm 3 mps 750 mmHg 43%
    18:00 +11°C° 0 mm 3 mps 750 mmHg 49%
    19:00 +9°C° 0 mm 2 mps 750 mmHg 54%
    20:00 +8°C° 0 mm 2 mps 750 mmHg 55%
    21:00 +7°C° 0 mm 2 mps 750 mmHg 56%
    22:00 +7°C° 0 mm 2 mps 751 mmHg 56%
    23:00 +6°C° 0 mm 2 mps 751 mmHg 56%
    Show more